NOAA-17
1 27453U 02032A 08142.77297679 .00000136 00000-0 77738-4 0 09331
2 27453 098.5355 208.1619 0011954 180.0496 180.0676 14.23975032307041
NOAA-18
1 28654U 05018A 08142.74792713 .00000418 00000-0 25626-3 0 04367
2 28654 098.8667 084.0039 0014969 031.9083 328.2993 14.11165490154747
HUBBLE
1 20580U 90037B 08142.40360793 .00000305 00000-0 10770-4 0 01518
2 20580 028.4678 137.9172 0003815 102.3188 257.7828 15.00379091790956
UARS
1 21701U 91063B 08142.87662611 .00006761 00000-0 10136-3 0 3709
2 21701 056.9729 276.1656 0089391 128.2859 232.6284 15.51826937918416
PO-34
1 25520U 98064B 08143.80564661 .00000374 00000-0 86568-5 0 9984
2 25520 028.4593 348.7081 0005136 008.6003 351.4678 15.17191437529302
ISS
1 25544U 98067A 08143.32928241 .00008455 00000-0 56307-4 0 5260
2 25544 051.6376 149.6881 0005602 240.3546 318.8778 15.76401038544442
OO-38
1 26063U 00004C 08143.71747497 -.00000027 00000-0 11228-4 0 2163
2 26063 100.1919 213.7204 0036546 281.5202 078.1879 14.35835438435919
UWE-1
1 28892U 05043C 08142.69178309 .00000158 00000-0 42676-4 0 00533
2 28892 098.1002 036.9630 0018299 130.1041 230.1761 14.59628844136738
CO-58
1 28895U 05043F 08142.66043113 .00000094 00000-0 29333-4 0 00272
2 28895 098.1038 037.2807 0018921 130.4538 229.8326 14.59668684136611
NCUBE2
1 28897U 05043H 08142.21680553 .00000085 00000-0 27229-4 0 05581
2 28897 098.0992 036.7782 0017816 131.9558 228.3159 14.59838622128831
FCAL
1 29667U 06055J 08143.72323539 .01314477 12289-4 14763-3 0 9702
2 29667 051.6088 080.2141 0005602 267.9700 092.1383 16.36228340 82483
FALCON
1 30776U 07006E 08143.80038792 .00000392 00000-0 31611-4 0 3173
2 30776 035.4352 307.4580 0000591 242.9754 117.0902 15.02987427 66324
MAST
1 31126U 07012K 08143.21853006 .00000136 00000-0 41317-4 0 3325
2 31126 098.0393 208.6877 0095666 052.9568 308.0352 14.53424031 58249
CAPE1
1 31130U 07012P 08142.93650639 -.00000045 00000-0 41401-6 0 03253
2 31130 098.0403 207.4884 0103879 056.9966 304.1140 14.51962248057913
CUTE1-7
1 32785U 08021C 08142.37101043 .00000075 00000-0 16542-4 0 00568
2 32785 097.9939 202.3531 0014215 219.9593 140.0574 14.81357550003430
COMPASS
1 32787U 08021E 08142.37027653 .00000053 00000-0 13660-4 0 00467
2 32787 097.9896 202.3388 0015097 220.8012 139.2070 14.81405803003436
AAUSAT2
1 32788U 08021F 08142.97646257 -.00000065 00000-0 -13469-5 0 00554
2 32788 097.9913 202.9467 0014764 217.4440 142.5751 14.81512971003526
DELFIC3
1 32789U 08021G 08142.91108798 .00000167 00000-0 28284-4 0 00553
2 32789 097.9918 202.8864 0015061 218.3591 141.6553 14.81381767003516
SEEDS
1 32791U 08021J 08142.37243550 .00000190 00000-0 31241-4 0 00487
2 32791 097.9946 202.3458 0015383 218.6653 141.3458 14.81267587003405
CANX-2
1 32797U 08021L 08142.66695120 .00002571 00000-0 33346-3 0 155
2 32797 097.9967 202.6548 0015596 218.8147 293.2722 14.81593525 2159
